Time,TemperatureF,DewpointF,PressureIn,WindDirection,WindDirectionDegrees,WindSpeedMPH,WindSpeedGustMPH,Humidity,HourlyPrecipIn,Conditions,Clouds,dailyrainin,SoftwareType,DateUTC
2013-04-20 00:03:00,51.0,43.0,29.85,NE,45,5.0,9.0,73,0.01,,,0.43,,2013-04-20 04:03:00,
2013-04-20 00:12:00,50.0,41.0,29.85,NE,48,2.0,13.0,70,0.01,,,0.43,,2013-04-20 04:12:00,
2013-04-20 00:23:00,50.0,41.0,29.85,NE,48,2.0,13.0,70,0.01,,,0.43,,2013-04-20 04:23:00,
2013-04-20 00:33:00,49.0,40.0,29.86,East,82,2.0,16.0,70,0.00,,,0.43,,2013-04-20 04:33:00,
2013-04-20 00:42:00,49.0,40.0,29.86,East,82,2.0,16.0,70,0.00,,,0.43,,2013-04-20 04:42:00,
2013-04-20 00:53:00,49.0,40.0,29.86,East,82,2.0,16.0,70,0.00,,,0.43,,2013-04-20 04:53:00,
2013-04-20 01:02:00,49.0,40.0,29.86,East,82,2.0,16.0,70,0.00,,,0.43,,2013-04-20 05:02:00,
2013-04-20 01:12:00,48.0,38.0,29.88,NNE,21,3.0,15.0,67,0.01,,,0.44,,2013-04-20 05:12:00,
2013-04-20 01:22:00,48.0,38.0,29.88,NNE,21,3.0,15.0,67,0.01,,,0.44,,2013-04-20 05:22:00,
2013-04-20 01:32:00,48.0,38.0,29.88,NNE,21,3.0,15.0,67,0.01,,,0.44,,2013-04-20 05:32:00,
2013-04-20 01:43:00,48.0,38.0,29.88,NNE,21,3.0,15.0,67,0.01,,,0.44,,2013-04-20 05:43:00,
2013-04-20 01:52:00,47.0,37.0,29.91,NNE,24,4.0,10.0,68,0.00,,,0.44,,2013-04-20 05:52:00,
2013-04-20 02:02:00,47.0,37.0,29.91,NNE,24,4.0,10.0,68,0.00,,,0.44,,2013-04-20 06:02:00,
2013-04-20 02:12:00,47.0,37.0,29.91,NNE,24,4.0,10.0,68,0.00,,,0.44,,2013-04-20 06:12:00,
2013-04-20 02:21:00,47.0,37.0,29.91,NE,38,3.0,14.0,68,0.01,,,0.45,,2013-04-20 06:21:00,
2013-04-20 02:32:00,47.0,37.0,29.91,NE,42,5.0,10.0,68,0.01,,,0.45,,2013-04-20 06:32:00,
2013-04-20 02:42:00,47.0,37.0,29.91,NE,42,5.0,10.0,68,0.01,,,0.45,,2013-04-20 06:42:00,
2013-04-20 02:52:00,47.0,37.0,29.91,NE,42,5.0,10.0,68,0.01,,,0.45,,2013-04-20 06:52:00,
2013-04-20 03:01:00,47.0,37.0,29.93,WNW,287,3.0,13.0,68,0.00,,,0.45,,2013-04-20 07:01:00,
2013-04-20 03:11:00,47.0,37.0,29.93,WNW,287,3.0,13.0,68,0.00,,,0.45,,2013-04-20 07:11:00,
2013-04-20 03:22:00,47.0,37.0,29.93,WNW,287,3.0,13.0,68,0.00,,,0.45,,2013-04-20 07:22:00,
2013-04-20 03:32:00,47.0,37.0,29.93,WNW,287,3.0,13.0,68,0.00,,,0.45,,2013-04-20 07:32:00,
2013-04-20 03:42:00,47.0,37.0,29.93,WNW,287,3.0,13.0,68,0.00,,,0.45,,2013-04-20 07:42:00,
2013-04-20 04:02:00,46.0,36.0,29.93,NE,44,2.0,8.0,68,0.01,,,0.46,,2013-04-20 08:02:00,
2013-04-20 04:11:00,46.0,36.0,29.93,NE,44,2.0,8.0,68,0.01,,,0.46,,2013-04-20 08:11:00,
2013-04-20 04:21:00,46.0,36.0,29.93,NE,44,2.0,8.0,68,0.01,,,0.46,,2013-04-20 08:21:00,
2013-04-20 04:32:00,45.0,35.0,29.94,NNE,31,4.0,10.0,68,0.01,,,0.46,,2013-04-20 08:32:00,
2013-04-20 04:42:00,45.0,35.0,29.94,NNE,31,4.0,10.0,68,0.01,,,0.46,,2013-04-20 08:42:00,
2013-04-20 04:52:00,45.0,35.0,29.94,NNE,31,4.0,10.0,68,0.01,,,0.46,,2013-04-20 08:52:00,
2013-04-20 05:02:00,45.0,35.0,29.94,NNE,31,4.0,10.0,68,0.01,,,0.46,,2013-04-20 09:02:00,
2013-04-20 05:12:00,45.0,34.0,29.97,NNE,22,3.0,12.0,66,0.00,,,0.46,,2013-04-20 09:12:00,
2013-04-20 05:22:00,45.0,34.0,29.97,NNE,22,3.0,12.0,66,0.00,,,0.46,,2013-04-20 09:22:00,
2013-04-20 05:33:00,44.0,33.0,29.97,North,356,3.0,12.0,66,0.01,,,0.47,,2013-04-20 09:33:00,
2013-04-20 05:43:00,44.0,33.0,29.97,North,356,3.0,12.0,66,0.01,,,0.47,,2013-04-20 09:43:00,
2013-04-20 05:53:00,44.0,33.0,29.97,North,356,3.0,12.0,66,0.01,,,0.47,,2013-04-20 09:53:00,
2013-04-20 06:03:00,44.0,34.0,29.98,NNE,25,5.0,9.0,67,0.01,,,0.47,,2013-04-20 10:03:00,
2013-04-20 06:13:00,44.0,34.0,29.98,NNE,25,5.0,9.0,67,0.01,,,0.47,,2013-04-20 10:13:00,
2013-04-20 06:23:00,43.0,32.0,29.99,NNE,29,5.0,12.0,66,0.01,,,0.47,,2013-04-20 10:23:00,
2013-04-20 06:33:00,43.0,32.0,29.99,NNE,29,5.0,12.0,66,0.01,,,0.47,,2013-04-20 10:33:00,
2013-04-20 06:42:00,43.0,32.0,29.99,NNE,29,5.0,12.0,66,0.01,,,0.47,,2013-04-20 10:42:00,
2013-04-20 06:53:00,43.0,32.0,29.99,NNE,29,5.0,12.0,66,0.01,,,0.47,,2013-04-20 10:53:00,
2013-04-20 07:02:00,42.0,31.0,30.03,NNE,21,1.0,6.0,66,0.00,,,0.47,,2013-04-20 11:02:00,
2013-04-20 07:12:00,42.0,31.0,30.03,North,3,0.0,5.0,66,0.00,,,0.47,,2013-04-20 11:12:00,
2013-04-20 07:23:00,42.0,31.0,30.03,North,3,0.0,5.0,66,0.00,,,0.47,,2013-04-20 11:23:00,
2013-04-20 07:32:00,42.0,31.0,30.03,North,3,0.0,5.0,66,0.00,,,0.47,,2013-04-20 11:32:00,
2013-04-20 07:42:00,42.0,31.0,30.03,North,3,0.0,5.0,66,0.00,,,0.47,,2013-04-20 11:42:00,
2013-04-20 07:53:00,42.0,31.0,30.03,North,3,0.0,5.0,66,0.00,,,0.47,,2013-04-20 11:53:00,
2013-04-20 08:02:00,41.0,31.0,30.05,ENE,57,1.0,8.0,66,0.00,,,0.46,,2013-04-20 12:02:00,
2013-04-20 08:11:00,41.0,31.0,30.05,ENE,57,1.0,8.0,66,0.00,,,0.46,,2013-04-20 12:11:00,
2013-04-20 08:23:00,42.0,31.0,30.06,SE,125,2.0,9.0,66,0.01,,,0.47,,2013-04-20 12:23:00,
2013-04-20 08:32:00,42.0,30.0,30.06,ENE,76,3.0,10.0,63,0.01,,,0.47,,2013-04-20 12:32:00,
2013-04-20 08:42:00,42.0,30.0,30.06,ENE,76,3.0,10.0,63,0.01,,,0.47,,2013-04-20 12:42:00,
2013-04-20 08:52:00,43.0,31.0,30.07,NNE,15,2.0,9.0,63,0.01,,,0.47,,2013-04-20 12:52:00,
2013-04-20 09:02:00,44.0,31.0,30.07,NE,38,4.0,9.0,61,0.01,,,0.47,,2013-04-20 13:02:00,
2013-04-20 09:11:00,44.0,31.0,30.08,ENE,67,1.0,9.0,61,0.00,,,0.47,,2013-04-20 13:11:00,
2013-04-20 09:21:00,44.0,31.0,30.08,ENE,67,1.0,9.0,61,0.00,,,0.47,,2013-04-20 13:21:00,
2013-04-20 09:32:00,44.0,31.0,30.08,ENE,67,1.0,9.0,61,0.00,,,0.47,,2013-04-20 13:32:00,
2013-04-20 09:42:00,46.0,32.0,30.09,NE,54,3.0,9.0,59,0.00,,,0.47,,2013-04-20 13:42:00,
2013-04-20 09:52:00,46.0,32.0,30.09,NE,54,3.0,9.0,59,0.00,,,0.47,,2013-04-20 13:52:00,
2013-04-20 10:02:00,46.0,32.0,30.09,NE,54,3.0,9.0,59,0.00,,,0.47,,2013-04-20 14:02:00,
2013-04-20 10:11:00,47.0,33.0,30.10,NE,54,3.0,9.0,57,0.01,,,0.48,,2013-04-20 14:11:00,
2013-04-20 10:21:00,47.0,33.0,30.10,NE,54,3.0,9.0,57,0.01,,,0.48,,2013-04-20 14:21:00,
2013-04-20 10:32:00,48.0,33.0,30.11,NNW,342,5.0,12.0,56,0.01,,,0.48,,2013-04-20 14:32:00,
2013-04-20 10:42:00,48.0,33.0,30.11,NNW,342,5.0,12.0,56,0.01,,,0.48,,2013-04-20 14:42:00,
2013-04-20 10:52:00,48.0,33.0,30.11,NNW,342,5.0,12.0,56,0.01,,,0.48,,2013-04-20 14:52:00,
2013-04-20 11:01:00,51.0,35.0,30.12,NE,46,3.0,12.0,55,0.06,,,0.48,,2013-04-20 15:01:00,
2013-04-20 11:12:00,51.0,35.0,30.12,NE,46,3.0,12.0,55,0.06,,,0.48,,2013-04-20 15:12:00,
2013-04-20 11:22:00,52.0,35.0,30.12,NW,318,3.0,10.0,53,0.06,,,0.48,,2013-04-20 15:22:00,
2013-04-20 11:33:00,52.0,35.0,30.12,NW,318,3.0,10.0,53,0.06,,,0.48,,2013-04-20 15:33:00,
2013-04-20 11:43:00,55.0,37.0,30.12,NNE,30,3.0,12.0,51,0.06,,,0.48,,2013-04-20 15:43:00,
2013-04-20 11:53:00,55.0,37.0,30.12,NNE,30,3.0,12.0,51,0.06,,,0.48,,2013-04-20 15:53:00,
2013-04-20 12:03:00,56.0,37.0,30.12,North,0,4.0,9.0,49,0.00,,,0.48,,2013-04-20 16:03:00,
2013-04-20 12:12:00,56.0,37.0,30.12,North,0,4.0,9.0,49,0.00,,,0.48,,2013-04-20 16:12:00,
2013-04-20 12:23:00,56.0,37.0,30.12,North,0,4.0,9.0,49,0.00,,,0.48,,2013-04-20 16:23:00,
2013-04-20 12:32:00,58.0,38.0,30.12,NE,41,3.0,8.0,48,0.00,,,0.48,,2013-04-20 16:32:00,
2013-04-20 12:42:00,58.0,38.0,30.12,NE,41,3.0,8.0,48,0.00,,,0.48,,2013-04-20 16:42:00,
2013-04-20 12:53:00,58.0,38.0,30.12,NE,41,3.0,8.0,48,0.00,,,0.48,,2013-04-20 16:53:00,
2013-04-20 13:00:00,61.0,39.0,30.11,ENE,61,5.0,10.0,44,0.00,,,0.48,,2013-04-20 17:00:00,
2013-04-20 13:02:00,60.0,39.0,30.11,ENE,59,3.0,10.0,45,0.00,,,0.48,,2013-04-20 17:02:00,
2013-04-20 13:12:00,61.0,39.0,30.11,ENE,61,5.0,10.0,44,0.00,,,0.48,,2013-04-20 17:12:00,
2013-04-20 13:23:00,61.0,39.0,30.11,ENE,61,5.0,10.0,44,0.00,,,0.48,,2013-04-20 17:23:00,
2013-04-20 13:33:00,61.0,39.0,30.11,ENE,61,5.0,10.0,44,0.00,,,0.48,,2013-04-20 17:33:00,
2013-04-20 13:42:00,61.0,39.0,30.11,ENE,61,5.0,10.0,44,0.00,,,0.48,,2013-04-20 17:42:00,
2013-04-20 13:52:00,61.0,39.0,30.11,ENE,61,5.0,10.0,44,0.00,,,0.48,,2013-04-20 17:52:00,
2013-04-20 14:32:00,64.0,39.0,30.10,NNW,327,3.0,9.0,39,0.00,,,0.48,,2013-04-20 18:32:00,
2013-04-20 14:42:00,64.0,39.0,30.10,NNW,327,3.0,9.0,39,0.00,,,0.48,,2013-04-20 18:42:00,
2013-04-20 14:52:00,64.0,39.0,30.10,NNW,327,3.0,9.0,39,0.00,,,0.48,,2013-04-20 18:52:00,
2013-04-20 15:02:00,64.0,39.0,30.10,NNW,327,3.0,9.0,39,0.00,,,0.48,,2013-04-20 19:02:00,
2013-04-20 15:11:00,66.0,38.0,30.10,ENE,78,3.0,12.0,36,0.00,,,0.48,,2013-04-20 19:11:00,
2013-04-20 15:22:00,66.0,38.0,30.10,ENE,78,3.0,12.0,36,0.00,,,0.48,,2013-04-20 19:22:00,
2013-04-20 15:32:00,66.0,38.0,30.10,ENE,78,3.0,12.0,36,0.00,,,0.48,,2013-04-20 19:32:00,
2013-04-20 15:42:00,66.0,38.0,30.10,ENE,78,3.0,12.0,36,0.00,,,0.48,,2013-04-20 19:42:00,
2013-04-20 15:52:00,66.0,38.0,30.10,ENE,78,3.0,12.0,36,0.00,,,0.48,,2013-04-20 19:52:00,
2013-04-20 16:02:00,67.0,38.0,30.11,East,83,3.0,9.0,34,0.00,,,0.39,,2013-04-20 20:02:00,
2013-04-20 16:12:00,66.0,35.0,30.10,NNE,19,3.0,10.0,32,0.00,,,0.36,,2013-04-20 20:12:00,
2013-04-20 16:22:00,66.0,35.0,30.10,NNE,19,3.0,10.0,32,0.00,,,0.36,,2013-04-20 20:22:00,
2013-04-20 16:32:00,66.0,35.0,30.10,NNE,19,3.0,10.0,32,0.00,,,0.36,,2013-04-20 20:32:00,
2013-04-20 16:42:00,66.0,35.0,30.10,NNE,19,3.0,10.0,32,0.00,,,0.36,,2013-04-20 20:42:00,
2013-04-20 16:52:00,65.0,35.0,30.10,NNE,25,1.0,10.0,33,0.00,,,0.29,,2013-04-20 20:52:00,
2013-04-20 17:01:00,65.0,35.0,30.10,NNE,25,1.0,10.0,33,0.00,,,0.29,,2013-04-20 21:01:00,
2013-04-20 17:12:00,64.0,34.0,30.11,NE,54,2.0,13.0,32,0.00,,,0.24,,2013-04-20 21:12:00,
2013-04-20 17:22:00,64.0,34.0,30.11,NE,54,2.0,13.0,32,0.00,,,0.24,,2013-04-20 21:22:00,
2013-04-20 17:33:00,63.0,33.0,30.11,North,0,3.0,8.0,33,0.00,,,0.22,,2013-04-20 21:33:00,
2013-04-20 17:43:00,63.0,33.0,30.11,North,0,3.0,8.0,33,0.00,,,0.22,,2013-04-20 21:43:00,
2013-04-20 17:53:00,63.0,33.0,30.11,North,0,3.0,8.0,33,0.00,,,0.22,,2013-04-20 21:53:00,
2013-04-20 18:03:00,62.0,33.0,30.12,ENE,68,3.0,9.0,34,0.00,,,0.19,,2013-04-20 22:03:00,
2013-04-20 18:12:00,62.0,33.0,30.12,ENE,68,3.0,9.0,34,0.00,,,0.19,,2013-04-20 22:12:00,
2013-04-20 18:23:00,62.0,33.0,30.12,ENE,68,3.0,9.0,34,0.00,,,0.19,,2013-04-20 22:23:00,
2013-04-20 18:32:00,62.0,33.0,30.12,ENE,68,3.0,9.0,34,0.00,,,0.19,,2013-04-20 22:32:00,
2013-04-20 18:42:00,62.0,33.0,30.12,ENE,68,3.0,9.0,34,0.00,,,0.19,,2013-04-20 22:42:00,
2013-04-20 18:53:00,60.0,32.0,30.14,NNE,33,2.0,5.0,35,0.00,,,0.15,,2013-04-20 22:53:00,
2013-04-20 19:02:00,59.0,32.0,30.14,ENE,75,2.0,7.0,36,0.00,,,0.14,,2013-04-20 23:02:00,
2013-04-20 19:12:00,58.0,33.0,30.15,East,94,1.0,5.0,38,0.00,,,0.14,,2013-04-20 23:12:00,
2013-04-20 19:22:00,58.0,33.0,30.15,East,94,1.0,5.0,38,0.00,,,0.14,,2013-04-20 23:22:00,
2013-04-20 19:32:00,58.0,33.0,30.15,East,94,1.0,5.0,38,0.00,,,0.14,,2013-04-20 23:32:00,
2013-04-20 19:42:00,58.0,33.0,30.15,East,94,1.0,5.0,38,0.00,,,0.14,,2013-04-20 23:42:00,
2013-04-20 19:53:00,56.0,32.0,30.16,ENE,57,1.0,8.0,40,0.00,,,0.12,,2013-04-20 23:53:00,
2013-04-20 20:01:00,56.0,32.0,30.16,NE,45,0.0,5.0,40,0.00,,,0.12,,2013-04-21 00:01:00,
2013-04-20 20:12:00,56.0,32.0,30.16,NE,45,0.0,5.0,40,0.00,,,0.12,,2013-04-21 00:12:00,
2013-04-20 20:22:00,55.0,31.0,30.18,East,88,1.0,6.0,40,0.00,,,0.11,,2013-04-21 00:22:00,
2013-04-20 20:32:00,54.0,30.0,30.19,ENE,66,0.0,3.0,40,0.00,,,0.10,,2013-04-21 00:32:00,
2013-04-20 20:42:00,54.0,30.0,30.19,ENE,66,0.0,3.0,40,0.00,,,0.10,,2013-04-21 00:42:00,
2013-04-20 20:52:00,54.0,30.0,30.19,ENE,66,0.0,3.0,40,0.00,,,0.10,,2013-04-21 00:52:00,
2013-04-20 21:01:00,54.0,30.0,30.19,ENE,66,0.0,3.0,40,0.00,,,0.10,,2013-04-21 01:01:00,
2013-04-20 21:12:00,54.0,30.0,30.19,ENE,66,0.0,3.0,40,0.00,,,0.10,,2013-04-21 01:12:00,
2013-04-20 21:32:00,52.0,30.0,30.23,NNE,12,0.0,1.0,43,0.00,,,0.09,,2013-04-21 01:32:00,
2013-04-20 21:42:00,52.0,30.0,30.23,NNE,12,0.0,1.0,43,0.00,,,0.09,,2013-04-21 01:42:00,
2013-04-20 21:52:00,52.0,31.0,30.24,NNW,329,0.0,0.0,44,0.00,,,0.08,,2013-04-21 01:52:00,
2013-04-20 22:02:00,52.0,30.0,30.25,NNW,329,0.0,0.0,43,0.00,,,0.08,,2013-04-21 02:02:00,
2013-04-20 22:11:00,52.0,30.0,30.25,NNW,329,0.0,0.0,43,0.00,,,0.08,,2013-04-21 02:11:00,
2013-04-20 22:22:00,51.0,30.0,30.25,NNW,329,0.0,0.0,44,0.00,,,0.08,,2013-04-21 02:22:00,
2013-04-20 22:30:00,51.0,30.0,30.27,NE,54,0.0,1.0,45,0.00,,,0.07,,2013-04-21 02:30:00,
2013-04-20 22:32:00,51.0,30.0,30.26,NNW,329,0.0,0.0,44,0.00,,,0.08,,2013-04-21 02:32:00,
2013-04-20 22:42:00,51.0,30.0,30.26,NNW,329,0.0,0.0,44,0.00,,,0.08,,2013-04-21 02:42:00,
2013-04-20 22:52:00,51.0,30.0,30.27,NE,54,0.0,1.0,45,0.00,,,0.07,,2013-04-21 02:52:00,
2013-04-20 23:01:00,51.0,30.0,30.27,NE,54,0.0,1.0,45,0.00,,,0.07,,2013-04-21 03:01:00,
2013-04-20 23:11:00,51.0,30.0,30.27,NE,54,0.0,1.0,45,0.00,,,0.07,,2013-04-21 03:11:00,
2013-04-20 23:21:00,51.0,30.0,30.27,NE,54,0.0,1.0,45,0.00,,,0.07,,2013-04-21 03:21:00,